| time (UTC) | temp C | wind direction | speed KPH | gust KPH | rain 1hr cm | rain 24hr cm | rain mn cm | humidity % | barometer mb |
| 20260507113846 | 6 | 220 | 0.0 | 1.6 | 0.00 | 0.00 | 0.00 | 62 | 1012.3 |
| 20260507113343 | 6 | 228 | 0.0 | 0.0 | 0.00 | 0.00 | 0.00 | 62 | 1012.2 |
| 20260507112841 | 6 | 212 | 0.0 | 0.0 | 0.00 | 0.00 | 0.00 | 62 | 1012.1 |
| 20260507112337 | 6 | 211 | 0.0 | 1.6 | 0.00 | 0.00 | 0.00 | 61 | 1012.0 |
| 20260507111836 | 6 | 208 | 0.0 | 0.0 | 0.00 | 0.00 | 0.00 | 61 | 1012.2 |
| 20260507111332 | 6 | 201 | 0.0 | 0.0 | 0.00 | 0.00 | 0.00 | 61 | 1012.2 |
| 20260507110828 | 6 | 207 | 0.0 | 1.6 | 0.00 | 0.00 | 0.00 | 60 | 1012.0 |
| 20260507110324 | 6 | 209 | 0.0 | 0.0 | 0.00 | 0.00 | 0.00 | 60 | 1012.0 |
| 20260507105821 | 6 | 218 | 0.0 | 1.6 | 0.00 | 0.00 | 0.00 | 59 | 1012.1 |
| 20260507105318 | 6 | 193 | 1.6 | 1.6 | 0.00 | 0.00 | 0.00 | 59 | 1012.2 |
| 20260507104815 | 6 | 191 | 0.0 | 1.6 | 0.00 | 0.00 | 0.00 | 58 | 1012.1 |
| 20260507104311 | 6 | 147 | 3.2 | 3.2 | 0.00 | 0.00 | 0.00 | 58 | 1012.2 |
| 20260507103807 | 6 | 173 | 1.6 | 1.6 | 0.00 | 0.00 | 0.00 | 58 | 1012.3 |
| 20260507103304 | 6 | 156 | 1.6 | 1.6 | 0.00 | 0.00 | 0.00 | 58 | 1012.4 |
| 20260507102800 | 6 | 199 | 0.0 | 1.6 | 0.00 | 0.00 | 0.00 | 58 | 1012.4 |
| 20260507102257 | 6 | 209 | 0.0 | 1.6 | 0.00 | 0.00 | 0.00 | 58 | 1012.4 |
| 20260507101753 | 6 | 198 | 1.6 | 1.6 | 0.00 | 0.00 | 0.00 | 57 | 1012.5 |
| 20260507101254 | 6 | 168 | 0.0 | 3.2 | 0.00 | 0.00 | 0.00 | 58 | 1012.5 |
| 20260507100751 | 6 | 179 | 1.6 | 3.2 | 0.00 | 0.00 | 0.00 | 58 | 1012.6 |
| 20260507100249 | 6 | 206 | 0.0 | 1.6 | 0.00 | 0.00 | 0.00 | 58 | 1012.7 |
| 20260507095747 | 6 | 194 | 0.0 | 0.0 | 0.00 | 0.00 | 0.00 | 58 | 1012.7 |
| 20260507095243 | 6 | 188 | 0.0 | 0.0 | 0.00 | 0.00 | 0.00 | 58 | 1012.7 |
| 20260507094740 | 6 | 188 | 0.0 | 1.6 | 0.00 | 0.00 | 0.00 | 58 | 1012.9 |
| 20260507094237 | 6 | 174 | 1.6 | 3.2 | 0.00 | 0.00 | 0.00 | 57 | 1013.3 |
| 20260507093734 | 6 | 193 | 1.6 | 3.2 | 0.00 | 0.00 | 0.00 | 57 | 1013.3 |
| 20260507093232 | 7 | 159 | 1.6 | 3.2 | 0.00 | 0.00 | 0.00 | 56 | 1013.2 |
| 20260507092730 | 7 | 220 | 0.0 | 3.2 | 0.00 | 0.00 | 0.00 | 56 | 1013.4 |
| 20260507092226 | 7 | 154 | 3.2 | 3.2 | 0.00 | 0.00 | 0.00 | 54 | 1013.4 |
| 20260507091722 | 7 | 198 | 1.6 | 1.6 | 0.00 | 0.00 | 0.00 | 55 | 1013.9 |
| 20260507091219 | 7 | 198 | 1.6 | 1.6 | 0.00 | 0.00 | 0.00 | 55 | 1013.9 |
| 20260507090719 | 7 | 214 | 0.0 | 3.2 | 0.00 | 0.00 | 0.00 | 56 | 1013.7 |
| 20260507090216 | 7 | 178 | 1.6 | 1.6 | 0.00 | 0.00 | 0.00 | 56 | 1013.9 |
| 20260507085713 | 7 | 209 | 0.0 | 0.0 | 0.00 | 0.00 | 0.00 | 56 | 1013.7 |
| 20260507085210 | 7 | 197 | 0.0 | 1.6 | 0.00 | 0.00 | 0.00 | 55 | 1013.8 |
| 20260507084707 | 7 | 199 | 0.0 | 0.0 | 0.00 | 0.00 | 0.00 | 55 | 1013.9 |
| 20260507084204 | 7 | 191 | 0.0 | 1.6 | 0.00 | 0.00 | 0.00 | 54 | 1013.8 |
| 20260507083701 | 7 | 189 | 0.0 | 1.6 | 0.00 | 0.00 | 0.00 | 54 | 1014.0 |
| 20260507083158 | 7 | 211 | 0.0 | 1.6 | 0.00 | 0.00 | 0.00 | 55 | 1014.0 |
| 20260507082654 | 6 | 195 | 0.0 | 1.6 | 0.00 | 0.00 | 0.00 | 55 | 1014.0 |
| 20260507082150 | 6 | 188 | 0.0 | 0.0 | 0.00 | 0.00 | 0.00 | 55 | 1014.2 |
| 20260507081647 | 6 | 202 | 0.0 | 1.6 | 0.00 | 0.00 | 0.00 | 55 | 1014.1 |
| 20260507081143 | 6 | 194 | 1.6 | 3.2 | 0.00 | 0.00 | 0.00 | 55 | 1014.1 |
| 20260507080639 | 6 | 169 | 1.6 | 1.6 | 0.00 | 0.00 | 0.00 | 56 | 1014.2 |
| 20260507080136 | 6 | 175 | 1.6 | 1.6 | 0.00 | 0.00 | 0.00 | 56 | 1014.1 |
| 20260507075631 | 6 | 204 | 0.0 | 1.6 | 0.00 | 0.00 | 0.00 | 56 | 1014.3 |
| 20260507075127 | 6 | 195 | 1.6 | 1.6 | 0.00 | 0.00 | 0.00 | 56 | 1014.2 |
| 20260507074624 | 6 | 184 | 0.0 | 1.6 | 0.00 | 0.00 | 0.00 | 57 | 1014.5 |
| 20260507074123 | 6 | 207 | 1.6 | 1.6 | 0.00 | 0.00 | 0.00 | 57 | 1014.4 |
| 20260507073619 | 6 | 209 | 0.0 | 1.6 | 0.00 | 0.00 | 0.00 | 57 | 1014.3 |
| 20260507073115 | 6 | 188 | 1.6 | 1.6 | 0.00 | 0.00 | 0.00 | 57 | 1014.5 |
| 20260507072613 | 6 | 173 | 1.6 | 1.6 | 0.00 | 0.00 | 0.00 | 57 | 1014.4 |
| 20260507072109 | 6 | 200 | 0.0 | 1.6 | 0.00 | 0.00 | 0.00 | 57 | 1014.5 |
| 20260507071607 | 6 | 201 | 0.0 | 1.6 | 0.00 | 0.00 | 0.00 | 58 | 1014.7 |
| 20260507071103 | 6 | 189 | 1.6 | 1.6 | 0.00 | 0.00 | 0.00 | 58 | 1014.6 |
| 20260507070600 | 6 | 169 | 0.0 | 1.6 | 0.00 | 0.00 | 0.00 | 58 | 1014.8 |
| 20260507070057 | 6 | 204 | 0.0 | 1.6 | 0.00 | 0.00 | 0.00 | 58 | 1014.7 |
| 20260507065554 | 6 | 182 | 0.0 | 0.0 | 0.00 | 0.00 | 0.00 | 59 | 1014.6 |
| 20260507065051 | 6 | 181 | 0.0 | 1.6 | 0.00 | 0.00 | 0.00 | 58 | 1015.0 |
| 20260507064549 | 6 | 196 | 0.0 | 0.0 | 0.00 | 0.00 | 0.00 | 59 | 1014.7 |
| 20260507064047 | 6 | 193 | 0.0 | 0.0 | 0.00 | 0.00 | 0.00 | 58 | 1014.9 |
| 20260507063544 | 6 | 196 | 0.0 | 0.0 | 0.00 | 0.00 | 0.00 | 58 | 1014.7 |
| 20260507063041 | 6 | 179 | 0.0 | 1.6 | 0.00 | 0.00 | 0.00 | 58 | 1015.1 |
| 20260507062538 | 6 | 190 | 0.0 | 1.6 | 0.00 | 0.00 | 0.00 | 59 | 1014.8 |
| 20260507062035 | 6 | 191 | 0.0 | 1.6 | 0.00 | 0.00 | 0.00 | 59 | 1015.1 |
| 20260507061533 | 6 | 179 | 1.6 | 1.6 | 0.00 | 0.00 | 0.00 | 59 | 1015.1 |
| 20260507061031 | 6 | 190 | 0.0 | 1.6 | 0.00 | 0.00 | 0.00 | 58 | 1015.0 |
| 20260507060529 | 6 | 182 | 0.0 | 1.6 | 0.00 | 0.00 | 0.00 | 58 | 1015.2 |
| 20260507060025 | 6 | 189 | 0.0 | 1.6 | 0.00 | 0.00 | 0.00 | 58 | 1015.1 |
| 20260507055525 | 6 | 180 | 0.0 | 1.6 | 0.00 | 0.00 | 0.00 | 58 | 1015.2 |
| 20260507055022 | 6 | 173 | 0.0 | 1.6 | 0.00 | 0.00 | 0.00 | 57 | 1015.3 |
| 20260507054518 | 6 | 180 | 1.6 | 1.6 | 0.00 | 0.00 | 0.00 | 57 | 1015.2 |
| 20260507054015 | 6 | 205 | 0.0 | 1.6 | 0.00 | 0.00 | 0.00 | 57 | 1015.2 |
| 20260507053513 | 6 | 200 | 0.0 | 1.6 | 0.00 | 0.00 | 0.00 | 57 | 1015.3 |
| 20260507053012 | 6 | 206 | 0.0 | 1.6 | 0.00 | 0.00 | 0.00 | 57 | 1015.3 |
| 20260507052509 | 6 | 201 | 0.0 | 1.6 | 0.00 | 0.00 | 0.00 | 57 | 1015.2 |
| 20260507052005 | 6 | 183 | 1.6 | 1.6 | 0.00 | 0.00 | 0.00 | 57 | 1015.4 |
| 20260507051503 | 6 | 186 | 0.0 | 0.0 | 0.00 | 0.00 | 0.00 | 58 | 1015.2 |
| 20260507050959 | 6 | 194 | 0.0 | 1.6 | 0.00 | 0.00 | 0.00 | 58 | 1015.2 |
| 20260507050456 | 5 | 180 | 0.0 | 1.6 | 0.00 | 0.00 | 0.00 | 59 | 1015.5 |
| 20260507045953 | 5 | 197 | 0.0 | 0.0 | 0.00 | 0.00 | 0.00 | 63 | 1015.2 |
| 20260507045449 | 5 | 201 | 0.0 | 0.0 | 0.00 | 0.00 | 0.00 | 62 | 1015.3 |
| 20260507044947 | 5 | 201 | 0.0 | 0.0 | 0.00 | 0.00 | 0.00 | 61 | 1015.5 |
| 20260507044444 | 5 | 201 | 0.0 | 0.0 | 0.00 | 0.00 | 0.00 | 61 | 1015.6 |
| 20260507043940 | 5 | 201 | 0.0 | 0.0 | 0.00 | 0.00 | 0.00 | 60 | 1015.5 |
| 20260507043436 | 5 | 211 | 0.0 | 0.0 | 0.00 | 0.00 | 0.00 | 61 | 1015.6 |
| 20260507042932 | 5 | 198 | 0.0 | 0.0 | 0.00 | 0.00 | 0.00 | 61 | 1015.8 |
| 20260507042429 | 5 | 198 | 0.0 | 0.0 | 0.00 | 0.00 | 0.00 | 61 | 1015.6 |
| 20260507041925 | 5 | 198 | 0.0 | 0.0 | 0.00 | 0.00 | 0.00 | 62 | 1015.8 |
| 20260507041422 | 5 | 198 | 0.0 | 0.0 | 0.00 | 0.00 | 0.00 | 61 | 1015.6 |
| 20260507040920 | 5 | 198 | 0.0 | 0.0 | 0.00 | 0.00 | 0.00 | 61 | 1015.7 |
| 20260507040415 | 5 | 198 | 0.0 | 0.0 | 0.00 | 0.00 | 0.00 | 61 | 1015.7 |
| 20260507035911 | 5 | 198 | 0.0 | 0.0 | 0.00 | 0.00 | 0.00 | 60 | 1015.8 |
| 20260507035408 | 6 | 198 | 0.0 | 0.0 | 0.00 | 0.00 | 0.00 | 60 | 1015.8 |
| 20260507034904 | 6 | 198 | 0.0 | 0.0 | 0.00 | 0.00 | 0.00 | 59 | 1016.0 |
| 20260507034401 | 6 | 201 | 0.0 | 0.0 | 0.00 | 0.00 | 0.00 | 58 | 1015.8 |
| 20260507033859 | 6 | 201 | 0.0 | 0.0 | 0.00 | 0.00 | 0.00 | 57 | 1015.9 |
| 20260507033357 | 6 | 201 | 0.0 | 0.0 | 0.00 | 0.00 | 0.00 | 56 | 1015.8 |
| 20260507032854 | 7 | 201 | 0.0 | 0.0 | 0.00 | 0.00 | 0.00 | 55 | 1015.9 |
| 20260507032350 | 7 | 196 | 0.0 | 0.0 | 0.00 | 0.00 | 0.00 | 54 | 1016.0 |
| 20260507031847 | 7 | 200 | 0.0 | 0.0 | 0.00 | 0.00 | 0.00 | 53 | 1016.0 |
| 20260507031344 | 7 | 199 | 0.0 | 0.0 | 0.00 | 0.00 | 0.00 | 53 | 1016.0 |
| 20260507030840 | 7 | 200 | 0.0 | 0.0 | 0.00 | 0.00 | 0.00 | 52 | 1016.1 |
| 20260507030338 | 7 | 200 | 0.0 | 0.0 | 0.00 | 0.00 | 0.00 | 51 | 1016.1 |
| 20260507025834 | 7 | 202 | 0.0 | 0.0 | 0.00 | 0.00 | 0.00 | 48 | 1016.0 |
| 20260507025332 | 7 | 202 | 0.0 | 0.0 | 0.00 | 0.00 | 0.00 | 48 | 1016.1 |
| 20260507024830 | 7 | 202 | 0.0 | 0.0 | 0.00 | 0.00 | 0.00 | 48 | 1016.1 |
| 20260507024327 | 7 | 202 | 0.0 | 0.0 | 0.00 | 0.00 | 0.00 | 48 | 1016.3 |
| 20260507023822 | 7 | 202 | 0.0 | 0.0 | 0.00 | 0.00 | 0.00 | 47 | 1016.0 |
| 20260507023319 | 7 | 202 | 0.0 | 0.0 | 0.00 | 0.00 | 0.00 | 47 | 1016.0 |
| 20260507022816 | 8 | 202 | 0.0 | 0.0 | 0.00 | 0.00 | 0.00 | 47 | 1016.0 |
| 20260507022313 | 8 | 204 | 0.0 | 0.0 | 0.00 | 0.00 | 0.00 | 46 | 1016.0 |
| 20260507021809 | 8 | 198 | 0.0 | 0.0 | 0.00 | 0.00 | 0.00 | 46 | 1015.9 |
| 20260507021304 | 8 | 203 | 0.0 | 0.0 | 0.00 | 0.00 | 0.00 | 45 | 1016.0 |
| 20260507020803 | 8 | 205 | 0.0 | 0.0 | 0.00 | 0.00 | 0.00 | 45 | 1015.7 |
| 20260507020259 | 8 | 206 | 0.0 | 0.0 | 0.00 | 0.00 | 0.00 | 44 | 1015.9 |
| 20260507015756 | 8 | 205 | 0.0 | 0.0 | 0.00 | 0.00 | 0.00 | 43 | 1015.8 |
| 20260507015254 | 9 | 208 | 0.0 | 0.0 | 0.00 | 0.00 | 0.00 | 42 | 1015.8 |
| 20260507014751 | 9 | 201 | 0.0 | 0.0 | 0.00 | 0.00 | 0.00 | 43 | 1015.6 |
| 20260507014247 | 10 | 201 | 0.0 | 0.0 | 0.00 | 0.00 | 0.00 | 42 | 1015.8 |
| 20260507013743 | 10 | 200 | 0.0 | 0.0 | 0.00 | 0.00 | 0.00 | 40 | 1015.8 |
| 20260507013241 | 10 | 231 | 0.0 | 1.6 | 0.00 | 0.00 | 0.00 | 40 | 1015.7 |
| 20260507012738 | 10 | 211 | 0.0 | 0.0 | 0.00 | 0.00 | 0.00 | 39 | 1015.8 |
| 20260507012233 | 10 | 207 | 1.6 | 1.6 | 0.00 | 0.00 | 0.00 | 39 | 1015.7 |
| 20260507011732 | 10 | 202 | 0.0 | 1.6 | 0.00 | 0.00 | 0.00 | 39 | 1015.6 |
| 20260507011228 | 11 | 207 | 1.6 | 6.4 | 0.00 | 0.00 | 0.00 | 39 | 1015.8 |
| 20260507010727 | 11 | 209 | 0.0 | 0.0 | 0.00 | 0.00 | 0.00 | 38 | 1015.7 |
| 20260507010223 | 11 | 219 | 0.0 | 1.6 | 0.00 | 0.00 | 0.00 | 37 | 1015.6 |
| 20260507005721 | 11 | 297 | 3.2 | 3.2 | 0.00 | 0.00 | 0.00 | 37 | 1015.6 |
| 20260507005217 | 11 | 218 | 1.6 | 3.2 | 0.00 | 0.00 | 0.00 | 36 | 1015.7 |
| 20260507004714 | 11 | 230 | 0.0 | 6.4 | 0.00 | 0.00 | 0.00 | 36 | 1015.8 |
| 20260507004212 | 11 | 248 | 0.0 | 1.6 | 0.00 | 0.00 | 0.00 | 36 | 1015.8 |
| 20260507003708 | 11 | 251 | 1.6 | 4.8 | 0.00 | 0.00 | 0.00 | 36 | 1015.9 |
| 20260507003203 | 12 | 226 | 1.6 | 3.2 | 0.00 | 0.00 | 0.00 | 36 | 1015.9 |
| 20260507002659 | 12 | 232 | 3.2 | 4.8 | 0.00 | 0.00 | 0.00 | 36 | 1015.8 |
| 20260507002155 | 12 | 217 | 1.6 | 3.2 | 0.00 | 0.00 | 0.00 | 36 | 1016.0 |
| 20260507001652 | 12 | 237 | 3.2 | 6.4 | 0.00 | 0.00 | 0.00 | 35 | 1015.9 |
| 20260507001150 | 12 | 257 | 3.2 | 9.7 | 0.00 | 0.00 | 0.00 | 35 | 1016.0 |
| 20260507000646 | 12 | 240 | 1.6 | 4.8 | 0.00 | 0.00 | 0.00 | 35 | 1016.1 |
| 20260507000141 | 12 | 250 | 3.2 | 6.4 | 0.00 | 0.00 | 0.00 | 36 | 1016.1 |
| 20260506235639 | 12 | 296 | 4.8 | 4.8 | 0.00 | 0.00 | 0.00 | 35 | 1016.1 |
| 20260506235139 | 12 | 214 | 1.6 | 9.7 | 0.00 | 0.00 | 0.00 | 34 | 1016.1 |
| 20260506234637 | 12 | 318 | 4.8 | 9.7 | 0.00 | 0.00 | 0.00 | 34 | 1016.1 |
| 20260506234134 | 13 | 289 | 4.8 | 11.3 | 0.00 | 0.00 | 0.00 | 34 | 1016.1 |
| 20260506233630 | 13 | 153 | 6.4 | 12.9 | 0.00 | 0.00 | 0.00 | 33 | 1016.3 |
| 20260506233128 | 13 | 231 | 1.6 | 6.4 | 0.00 | 0.00 | 0.00 | 33 | 1016.3 |
| 20260506232624 | 12 | 191 | 0.0 | 3.2 | 0.00 | 0.00 | 0.00 | 34 | 1016.0 |
| 20260506232119 | 13 | 207 | 0.0 | 6.4 | 0.00 | 0.00 | 0.00 | 34 | 1016.1 |
| 20260506231617 | 13 | 334 | 4.8 | 9.7 | 0.00 | 0.00 | 0.00 | 33 | 1016.3 |
| 20260506231115 | 13 | 202 | 4.8 | 9.7 | 0.00 | 0.00 | 0.00 | 34 | 1016.4 |
| 20260506230611 | 13 | 337 | 11.3 | 12.9 | 0.00 | 0.00 | 0.00 | 33 | 1016.4 |
| 20260506230109 | 13 | 342 | 4.8 | 9.7 | 0.00 | 0.00 | 0.00 | 32 | 1016.5 |
| 20260506225605 | 13 | 258 | 9.7 | 12.9 | 0.00 | 0.00 | 0.00 | 34 | 1016.6 |
| 20260506225101 | 13 | 16 | 3.2 | 6.4 | 0.00 | 0.00 | 0.00 | 33 | 1016.5 |
| 20260506224558 | 13 | 224 | 3.2 | 9.7 | 0.00 | 0.00 | 0.00 | 34 | 1016.5 |
| 20260506224055 | 12 | 228 | 1.6 | 9.7 | 0.00 | 0.00 | 0.00 | 35 | 1016.6 |
| 20260506223551 | 13 | 202 | 3.2 | 11.3 | 0.00 | 0.00 | 0.00 | 33 | 1016.5 |
| 20260506223047 | 14 | 234 | 6.4 | 9.7 | 0.00 | 0.00 | 0.00 | 32 | 1016.5 |
| 20260506222544 | 14 | 95 | 1.6 | 11.3 | 0.00 | 0.00 | 0.00 | 34 | 1016.4 |
| 20260506222041 | 14 | 253 | 1.6 | 6.4 | 0.00 | 0.00 | 0.00 | 34 | 1016.6 |
| 20260506221538 | 13 | 208 | 1.6 | 11.3 | 0.00 | 0.00 | 0.00 | 34 | 1016.5 |
| 20260506221036 | 13 | 174 | 3.2 | 14.5 | 0.00 | 0.00 | 0.00 | 34 | 1016.6 |
| 20260506220532 | 13 | 298 | 4.8 | 11.3 | 0.00 | 0.00 | 0.00 | 33 | 1016.6 |
| 20260506220028 | 13 | 5 | 3.2 | 9.7 | 0.00 | 0.00 | 0.00 | 35 | 1016.6 |
| 20260506215525 | 13 | 294 | 9.7 | 16.1 | 0.00 | 0.00 | 0.00 | 35 | 1016.8 |
| 20260506215020 | 13 | 336 | 3.2 | 9.7 | 0.00 | 0.00 | 0.00 | 35 | 1016.7 |
| 20260506214518 | 13 | 314 | 4.8 | 9.7 | 0.00 | 0.00 | 0.00 | 34 | 1016.6 |
| 20260506214015 | 13 | 315 | 6.4 | 12.9 | 0.00 | 0.00 | 0.00 | 35 | 1016.6 |
| 20260506213513 | 13 | 138 | 3.2 | 6.4 | 0.00 | 0.00 | 0.00 | 34 | 1016.6 |
| 20260506213009 | 13 | 328 | 3.2 | 11.3 | 0.00 | 0.00 | 0.00 | 35 | 1016.5 |
| 20260506212506 | 13 | 296 | 6.4 | 9.7 | 0.00 | 0.00 | 0.00 | 33 | 1016.5 |
| 20260506212000 | 13 | 23 | 3.2 | 6.4 | 0.00 | 0.00 | 0.00 | 36 | 1016.6 |
| 20260506211457 | 13 | 257 | 8.0 | 12.9 | 0.00 | 0.00 | 0.00 | 34 | 1016.8 |
| 20260506210954 | 13 | 227 | 6.4 | 9.7 | 0.00 | 0.00 | 0.00 | 35 | 1016.7 |
| 20260506210450 | 14 | 310 | 4.8 | 11.3 | 0.00 | 0.00 | 0.00 | 34 | 1016.8 |
| 20260506205948 | 14 | 263 | 1.6 | 6.4 | 0.00 | 0.00 | 0.00 | 33 | 1016.9 |
| 20260506205443 | 13 | 247 | 4.8 | 4.8 | 0.00 | 0.00 | 0.00 | 34 | 1016.9 |
| 20260506204939 | 13 | 219 | 1.6 | 6.4 | 0.00 | 0.00 | 0.00 | 34 | 1016.8 |
| 20260506204438 | 13 | 301 | 9.7 | 17.7 | 0.00 | 0.00 | 0.00 | 34 | 1017.1 |
| 20260506203935 | 13 | 195 | 3.2 | 11.3 | 0.00 | 0.00 | 0.00 | 35 | 1017.0 |
| 20260506203432 | 13 | 258 | 3.2 | 11.3 | 0.00 | 0.00 | 0.00 | 33 | 1017.1 |
| 20260506202929 | 13 | 205 | 4.8 | 6.4 | 0.00 | 0.00 | 0.00 | 34 | 1016.9 |
| 20260506202426 | 12 | 212 | 1.6 | 9.7 | 0.00 | 0.00 | 0.00 | 37 | 1017.2 |
| 20260506201922 | 13 | 207 | 3.2 | 9.7 | 0.00 | 0.00 | 0.00 | 36 | 1017.1 |
| 20260506201420 | 14 | 179 | 8.0 | 12.9 | 0.00 | 0.00 | 0.00 | 32 | 1017.2 |
| 20260506200916 | 14 | 359 | 4.8 | 9.7 | 0.00 | 0.00 | 0.00 | 34 | 1017.1 |
| 20260506200413 | 13 | 292 | 3.2 | 6.4 | 0.00 | 0.00 | 0.00 | 34 | 1017.4 |
| 20260506195909 | 13 | 213 | 1.6 | 22.5 | 0.00 | 0.00 | 0.00 | 35 | 1017.4 |
| 20260506195407 | 13 | 236 | 1.6 | 6.4 | 0.00 | 0.00 | 0.00 | 35 | 1017.3 |
| 20260506194903 | 13 | 277 | 3.2 | 9.7 | 0.00 | 0.00 | 0.00 | 36 | 1017.4 |
| 20260506194400 | 13 | 186 | 9.7 | 14.5 | 0.00 | 0.00 | 0.00 | 34 | 1017.3 |
| 20260506193857 | 13 | 334 | 4.8 | 9.7 | 0.00 | 0.00 | 0.00 | 36 | 1017.3 |
| 20260506193354 | 13 | 302 | 3.2 | 9.7 | 0.00 | 0.00 | 0.00 | 35 | 1017.3 |
| 20260506192850 | 13 | 289 | 8.0 | 11.3 | 0.00 | 0.00 | 0.00 | 35 | 1017.5 |
| 20260506192347 | 12 | 25 | 1.6 | 3.2 | 0.00 | 0.00 | 0.00 | 36 | 1017.4 |
| 20260506191844 | 13 | 337 | 6.4 | 11.3 | 0.00 | 0.00 | 0.00 | 35 | 1017.6 |
| 20260506191341 | 13 | 264 | 6.4 | 12.9 | 0.00 | 0.00 | 0.00 | 35 | 1017.5 |
| 20260506190838 | 13 | 266 | 4.8 | 12.9 | 0.00 | 0.00 | 0.00 | 36 | 1017.4 |
| 20260506190334 | 13 | 359 | 3.2 | 9.7 | 0.00 | 0.00 | 0.00 | 37 | 1017.7 |
| 20260506185831 | 13 | 341 | 3.2 | 9.7 | 0.00 | 0.00 | 0.00 | 37 | 1017.6 |
| 20260506185328 | 13 | 236 | 9.7 | 16.1 | 0.00 | 0.00 | 0.00 | 36 | 1017.7 |
| 20260506184825 | 13 | 208 | 4.8 | 6.4 | 0.00 | 0.00 | 0.00 | 36 | 1017.8 |
| 20260506184322 | 12 | 161 | 3.2 | 12.9 | 0.00 | 0.00 | 0.00 | 37 | 1017.7 |
| 20260506183820 | 12 | 306 | 6.4 | 11.3 | 0.00 | 0.00 | 0.00 | 36 | 1017.8 |
| 20260506183314 | 12 | 86 | 3.2 | 11.3 | 0.00 | 0.00 | 0.00 | 37 | 1018.0 |
| 20260506182812 | 12 | 105 | 1.6 | 4.8 | 0.00 | 0.00 | 0.00 | 38 | 1017.9 |
| 20260506182309 | 13 | 240 | 4.8 | 6.4 | 0.00 | 0.00 | 0.00 | 36 | 1017.8 |
| 20260506181807 | 12 | 269 | 3.2 | 9.7 | 0.00 | 0.00 | 0.00 | 38 | 1017.9 |
| 20260506181304 | 12 | 259 | 6.4 | 14.5 | 0.00 | 0.00 | 0.00 | 38 | 1017.9 |
| 20260506180802 | 12 | 203 | 3.2 | 14.5 | 0.00 | 0.00 | 0.00 | 38 | 1017.9 |
| 20260506180257 | 12 | 234 | 3.2 | 6.4 | 0.00 | 0.00 | 0.00 | 37 | 1018.0 |
| 20260506175753 | 12 | 18 | 1.6 | 4.8 | 0.00 | 0.00 | 0.00 | 36 | 1018.0 |
| 20260506175251 | 12 | 279 | 3.2 | 3.2 | 0.00 | 0.00 | 0.00 | 39 | 1018.1 |
| 20260506174748 | 11 | 219 | 1.6 | 3.2 | 0.00 | 0.00 | 0.00 | 39 | 1018.1 |
| 20260506174245 | 11 | 210 | 1.6 | 6.4 | 0.00 | 0.00 | 0.00 | 40 | 1018.3 |
| 20260506173743 | 11 | 268 | 6.4 | 9.7 | 0.00 | 0.00 | 0.00 | 39 | 1018.3 |
| 20260506173240 | 11 | 269 | 3.2 | 20.9 | 0.00 | 0.00 | 0.00 | 40 | 1018.3 |
| 20260506172736 | 11 | 287 | 3.2 | 12.9 | 0.00 | 0.00 | 0.00 | 39 | 1018.3 |
| 20260506172233 | 11 | 251 | 3.2 | 12.9 | 0.00 | 0.00 | 0.00 | 40 | 1018.5 |
| 20260506171731 | 10 | 193 | 1.6 | 11.3 | 0.00 | 0.00 | 0.00 | 41 | 1018.5 |
| 20260506171228 | 10 | 227 | 1.6 | 6.4 | 0.00 | 0.00 | 0.00 | 41 | 1018.5 |
| 20260506170725 | 10 | 264 | 4.8 | 9.7 | 0.00 | 0.00 | 0.00 | 40 | 1018.3 |
| 20260506170222 | 10 | 264 | 3.2 | 4.8 | 0.00 | 0.00 | 0.00 | 40 | 1018.5 |
| 20260506165720 | 11 | 203 | 3.2 | 6.4 | 0.00 | 0.00 | 0.00 | 40 | 1018.5 |
| 20260506165217 | 11 | 285 | 1.6 | 11.3 | 0.00 | 0.00 | 0.00 | 40 | 1018.5 |
| 20260506164714 | 11 | 259 | 6.4 | 11.3 | 0.00 | 0.00 | 0.00 | 40 | 1018.5 |
| 20260506164211 | 11 | 326 | 1.6 | 9.7 | 0.00 | 0.00 | 0.00 | 41 | 1018.4 |
| 20260506163707 | 10 | 177 | 3.2 | 9.7 | 0.00 | 0.00 | 0.00 | 41 | 1018.4 |
| 20260506163202 | 10 | 13 | 6.4 | 16.1 | 0.00 | 0.00 | 0.00 | 40 | 1018.3 |
| 20260506162659 | 10 | 251 | 1.6 | 3.2 | 0.00 | 0.00 | 0.00 | 40 | 1018.4 |
| 20260506162156 | 11 | 173 | 3.2 | 14.5 | 0.00 | 0.00 | 0.00 | 39 | 1018.2 |
| 20260506161653 | 10 | 267 | 6.4 | 6.4 | 0.00 | 0.00 | 0.00 | 41 | 1018.4 |
| 20260506161150 | 10 | 223 | 1.6 | 9.7 | 0.00 | 0.00 | 0.00 | 41 | 1018.3 |
| 20260506160648 | 11 | 266 | 6.4 | 12.9 | 0.00 | 0.00 | 0.00 | 39 | 1018.2 |
| 20260506160145 | 10 | 194 | 3.2 | 4.8 | 0.00 | 0.00 | 0.00 | 42 | 1018.3 |
| 20260506155643 | 10 | 236 | 4.8 | 6.4 | 0.00 | 0.00 | 0.00 | 41 | 1018.3 |
| 20260506155139 | 11 | 229 | 1.6 | 4.8 | 0.00 | 0.00 | 0.00 | 40 | 1018.2 |
| 20260506153236 | 10 | 236 | 1.6 | 6.4 | 0.00 | 0.00 | 0.00 | 45 | 1018.1 |
| 20260506152733 | 11 | 120 | 4.8 | 11.3 | 0.00 | 0.00 | 0.00 | 42 | 1018.1 |
| 20260506152230 | 11 | 274 | 0.0 | 4.8 | 0.00 | 0.00 | 0.00 | 43 | 1018.2 |
| 20260506151729 | 11 | 294 | 1.6 | 4.8 | 0.00 | 0.00 | 0.00 | 43 | 1018.1 |
| 20260506151225 | 11 | 253 | 3.2 | 6.4 | 0.00 | 0.00 | 0.00 | 43 | 1018.2 |
| 20260506150722 | 11 | 298 | 3.2 | 6.4 | 0.00 | 0.00 | 0.00 | 41 | 1018.1 |
| 20260506150219 | 11 | 165 | 1.6 | 3.2 | 0.00 | 0.00 | 0.00 | 44 | 1018.1 |
| 20260506145716 | 10 | 252 | 3.2 | 4.8 | 0.00 | 0.00 | 0.00 | 44 | 1018.1 |
| 20260506145212 | 10 | 273 | 3.2 | 9.7 | 0.00 | 0.00 | 0.00 | 43 | 1018.1 |
| 20260506144710 | 11 | 196 | 1.6 | 6.4 | 0.00 | 0.00 | 0.00 | 43 | 1018.1 |
| 20260506144207 | 10 | 203 | 3.2 | 6.4 | 0.00 | 0.00 | 0.00 | 44 | 1018.3 |
| 20260506143704 | 10 | 202 | 3.2 | 4.8 | 0.00 | 0.00 | 0.00 | 43 | 1018.1 |
| 20260506143202 | 10 | 14 | 3.2 | 4.8 | 0.00 | 0.00 | 0.00 | 44 | 1018.1 |
| 20260506142700 | 10 | 272 | 3.2 | 4.8 | 0.00 | 0.00 | 0.00 | 43 | 1018.0 |
| 20260506142158 | 10 | 346 | 1.6 | 3.2 | 0.00 | 0.00 | 0.00 | 44 | 1018.1 |
| 20260506141655 | 10 | 327 | 3.2 | 4.8 | 0.00 | 0.00 | 0.00 | 44 | 1018.0 |
| 20260506141153 | 10 | 346 | 3.2 | 3.2 | 0.00 | 0.00 | 0.00 | 44 | 1017.9 |
| 20260506140651 | 10 | 234 | 1.6 | 6.4 | 0.00 | 0.00 | 0.00 | 44 | 1017.9 |
| 20260506140148 | 9 | 203 | 1.6 | 3.2 | 0.00 | 0.00 | 0.00 | 46 | 1018.0 |
| 20260506135644 | 9 | 125 | 1.6 | 4.8 | 0.00 | 0.00 | 0.00 | 45 | 1018.0 |
| 20260506135141 | 8 | 343 | 3.2 | 4.8 | 0.00 | 0.00 | 0.00 | 45 | 1017.9 |
| 20260506134637 | 8 | 232 | 3.2 | 9.7 | 0.00 | 0.00 | 0.00 | 47 | 1017.8 |
| 20260506134133 | 8 | 277 | 4.8 | 6.4 | 0.00 | 0.00 | 0.00 | 48 | 1017.7 |
| 20260506133631 | 8 | 313 | 3.2 | 4.8 | 0.00 | 0.00 | 0.00 | 48 | 1017.8 |
| 20260506133128 | 8 | 7 | 3.2 | 6.4 | 0.00 | 0.00 | 0.00 | 48 | 1017.5 |
| 20260506132625 | 8 | 324 | 3.2 | 6.4 | 0.00 | 0.00 | 0.00 | 49 | 1017.5 |
| 20260506132122 | 7 | 210 | 3.2 | 4.8 | 0.00 | 0.00 | 0.00 | 51 | 1017.6 |
| 20260506131619 | 7 | 32 | 1.6 | 4.8 | 0.00 | 0.00 | 0.00 | 53 | 1017.5 |
| 20260506131115 | 7 | 298 | 3.2 | 6.4 | 0.00 | 0.00 | 0.00 | 53 | 1017.6 |
| 20260506130613 | 7 | 304 | 3.2 | 4.8 | 0.00 | 0.00 | 0.00 | 55 | 1017.4 |
| 20260506130110 | 6 | 288 | 3.2 | 6.4 | 0.00 | 0.00 | 0.00 | 54 | 1017.6 |
| 20260506125608 | 6 | 235 | 1.6 | 3.2 | 0.00 | 0.00 | 0.00 | 56 | 1017.4 |
| 20260506125106 | 6 | 223 | 0.0 | 3.2 | 0.00 | 0.00 | 0.00 | 57 | 1017.3 |
| 20260506124603 | 6 | 245 | 1.6 | 3.2 | 0.00 | 0.00 | 0.00 | 59 | 1017.5 |
| 20260506124101 | 5 | 243 | 0.0 | 1.6 | 0.00 | 0.00 | 0.00 | 60 | 1017.2 |
| 20260506123558 | 5 | 214 | 0.0 | 0.0 | 0.00 | 0.00 | 0.00 | 61 | 1017.1 |
| 20260506123057 | 5 | 207 | 0.0 | 1.6 | 0.00 | 0.00 | 0.00 | 61 | 1017.3 |
| 20260506122553 | 5 | 221 | 0.0 | 1.6 | 0.00 | 0.00 | 0.00 | 63 | 1017.2 |
| 20260506122051 | 4 | 222 | 0.0 | 1.6 | 0.00 | 0.00 | 0.00 | 64 | 1016.9 |
| 20260506121548 | 4 | 247 | 0.0 | 1.6 | 0.00 | 0.00 | 0.00 | 64 | 1017.1 |
| 20260506121044 | 4 | 226 | 0.0 | 1.6 | 0.00 | 0.00 | 0.00 | 64 | 1017.1 |
| 20260506120543 | 4 | 239 | 1.6 | 3.2 | 0.00 | 0.00 | 0.00 | 64 | 1016.9 |
| 20260506120039 | 3 | 223 | 1.6 | 1.6 | 0.00 | 0.00 | 0.00 | 64 | 1016.7 |
| 20260506115537 | 3 | 275 | 1.6 | 1.6 | 0.00 | 0.00 | 0.00 | 64 | 1016.8 |
| 20260506115036 | 3 | 200 | 0.0 | 1.6 | 0.00 | 0.00 | 0.00 | 65 | 1016.7 |
| 20260506114533 | 3 | 227 | 1.6 | 1.6 | 0.00 | 0.00 | 0.00 | 64 | 1016.9 |